TRANSIT 10 DEB, 24705

Orbit data source: Space-Track

TRANSIT 10 DEB, 24705 is space debris in LEO originally from a launch on Wed, 22 Dec 1965 UTC launched from the Air Force Western Test Range (AFWTR). Debris objects in space refer to the collection of defunct objects orbiting the Earth. Examples of debris include non-operational satellites, rocket bodies, and fragments generated from explosions, collisions, or faulty payload assembly.

Loading next visibility...
Identifier
24705, 1965-109E
Orbit
LEO
Country
Flag of USUS
Related business
Manufacturer
Unknown
Mission
Spacecraft
Bus & Motor
Unknown
Mass
Unknown
Launch date (UTC)
1965-12-22 (60 years ago)
Launch vehicle
Unknown
Launch site
Air Force Western Test Range (AFWTR)
Object type
Payload
Rocket body
Debris
Shape & HBR
Unknown shape, 0.2 m
Radar Cross Section
Medium (>0.1 m² and <1 m²)

Expand to show TLE details & history
Last TLE update: 14 hours ago

TLE from 14 hours ago
0 TRANSIT 10 DEB
1 24705U 65109E   25295.55204545  .00004319  00000-0  23107-2 0  9994
2 24705  89.0649 223.2107 0081371 108.9723  67.9416 14.11303376467305
Epoch: 2025-10-22T13:14Z
TLE epoch observation values (Epoch: 2025-10-22T13:14:56.726Z)
Latitude
2.11272°
Longitude
173.21601°
Altitude
836.012 km
Speed
7.446 km/s
True Right ascension
02h 52m 42s
True Declination
2° 06' 01"
Sunlit
Object was in full shadow at epoch
Visualization orbit readout
Latitude
Unknown
Longitude
Unknown
Altitude
Unknown
Speed
Unknown
Apparent Right ascension
Unknown
Apparent Declination
Unknown
Sunlit
N/A
Visualization observer readout
Local Sidereal Time
22:03:09
Azimuth
Unknown
Elevation
Unknown
Doppler factor
Unknown
Orbital elements
Apogee altitude
910.709 km
Perigee altitude
793.047 km
Semi-major axis
7,230.015 km
Eccentricity
0.00814
Inclination
89.0649°
RAAN
223.2107°
Arg. of periapsis
108.9723°
True anomaly
68.80907°
Mean anomaly
67.9416°
Eccentric anomaly
68.37501°
Mean motion
3.53048 °/min
Orbital period
101.97 mins
BSTAR
0.0023107
Loading maneuver chart data...
Computing Atmospheric mass density...
Loading historical data...
Loading historical data...
Loading historical data...
Loading historical data...
Loading historical data...
Loading historical data...
Loading historical data...

Documentation

Showing up to 5 results
|